Location: Eastchurch
(51.4000°N, 0.8667°E)
Time: 23:37:13
(UTC+00:00)

Cosmos 2360 Rocket - Pass Details

Date: 19 January 2026
Orbit: 834 x 842 km, 71.0° (Epoch: 17 February)

Event Time Altitude Azimuth Distance (km) Brightness Sun altitude
Rises 20:30:14 0° 330° (NNW) 3,394 5.9 -37.7°
Reaches altitude 10° 20:32:44 10° 336° (NNW) 2,457 5.0 -38.1°
Enters shadow 20:33:50 16° 339° (NNW) 2,064 4.5 -38.2°
